Weather Roundup
Issued by NWS

Home | Current Version | Previous Version | Graphics & Text | Print | Product List | Glossary Off
Versions: 1 2 3 4 5 6 7 8 9 10 11 12 13 14 15 16 17 18 19 20 21 22 23 24 25 26 27 28 29 30 31 32 33 34 35 36 37 38 39 40 41 42 43 44 45 46 47 48 49 50

115
NZUS93 KARX 171459
HRRWXR

CURRENT HOURLY OBSERVATIONS ACROSS
MUCH OF THE UPPER MISSISSIPPI VALLEY
NATIONAL WEATHER SERVICE LA CROSSE WI
900 AM CST TUE JAN 17 2017


...SOUTHEAST MINNESOTA...


CITY           SKY/WX    TMP DP  RH WIND       PRES   REMARKS
ROCHESTER      FOG       32  32 100 N10       29.89S VSB 1/4 WCI  24
ROCHESTER/MAYO CLOUDY    32  32 100 N3        29.90S
WINONA         MIX PCPN  34  34 100 NW5       29.91S WCI  30
AUSTIN         FOG       30  30 100 NW6       29.91R VSB 1/4 WCI  24
ALBERT LEA     FOG       30  30 100 NW3       29.93R VSB<1/4
DODGE CENTER   FOG       30  30 100 NW3       29.91R VSB 1/4
PRESTON        CLOUDY    32  31  97 N5        29.89R FOG     WCI  27
OWATONNA       CLOUDY    30  28  93 NW5       29.94R FOG     WCI  25
FARIBAULT        N/A     30  30 100 NW6       29.94S FOG     WCI  24
$$

...ELSEWHERE IN MINNESOTA...


CITY           SKY/WX    TMP DP  RH WIND       PRES   REMARKS
MINNEAPOLIS    CLOUDY    31  25  78 N9        29.97R WCI  23
INTNL FALLS    CLOUDY    -1  -5  82 CALM      29.92R
DULUTH         FOG       26  24  92 CALM      29.94R VSB 1/8
RED WING       CLOUDY    34  32  93 CALM      29.92S FOG
REDWOOD FALLS  CLOUDY    21  16  81 NW8       30.01R WCI  11
MANKATO        CLOUDY    30  28  92 NW12      29.98R WCI  20
WORTHINGTON    FOG       28  27  96 NW9       30.00R VSB 1/4 WCI  19
FAIRMONT       FOG       27  26  96 NW12      29.99R VSB 3/4 WCI  17
$$

...SOUTHWEST WISCONSIN...


CITY           SKY/WX    TMP DP  RH WIND       PRES   REMARKS
LA CROSSE      CLOUDY    36  33  89 NW7       29.89R FOG     WCI  30
PRAIRIE DU CHI FOG       33  32  96 CALM      29.88R VSB 1
BOSCOBEL       CLOUDY    35  33  92 CALM      29.89R FOG
LONE ROCK      CLOUDY    34  32  92 NW5       29.87R FOG     WCI  30
PLATTEVILLE    CLOUDY    33  33 100 W3        29.87R VSB 1/2
FORT MC COY    NOT AVBL
MAUSTON-NEW LI FOG       33  33  99 CALM      29.86R VSB 3/4
VIROQUA        CLOUDY    32  32 100 CALM      29.85R VSB 3/4
WIS DELLS      FOG       32  32 100 CALM      29.85R VSB 1/2
$$

...ELSEWHERE IN WISCONSIN...


CITY           SKY/WX    TMP DP  RH WIND       PRES   REMARKS
MILWAUKEE      FOG       38  36  92 N8        29.80R VSB 1   WCI  32
MADISON        FOG       33  33 100 NW3       29.86R VSB 1/2
GREEN BAY      LGT RAIN  35  35 100 N12       29.84F FOG     WCI  27
EAU CLAIRE     LGT SNOW  33  33 100 N5        29.91R FOG     WCI  29
BLACK RVR FLS  CLOUDY    33  33 100 N3        29.88R FOG
MEDFORD        MIX PCPN  32  32  99 NE6       29.86S WCI  26
WAUSAU         LGT RAIN  33  32  96 N5        29.86R FOG     WCI  29
WIS RAPIDS     CLOUDY    33  33 100 N5        29.88R FOG     WCI  29
MARSHFIELD     FOG       33  32  96 N5        29.86R VSB 1   WCI  29
RICE LAKE      MIX PCPN  33  32  96 N3        29.93R
$$

...NORTHEAST IOWA...


CITY           SKY/WX    TMP DP  RH WIND       PRES   REMARKS
WATERLOO       CLOUDY    33  31  92 W8        29.93R FOG     WCI  26
DUBUQUE        FOG       32  32 100 W7        29.88R VSB 3/4 WCI  26
DECORAH        CLOUDY    32  32 100 NW8       29.87R FOG     WCI  25
MASON CITY     FOG       30  29  96 NW15      29.95R VSB 1/4 WCI  19
CHARLES CITY   CLOUDY    32  32 100 NW13      29.91R FOG     WCI  22
OELWEIN        CLOUDY    34  32  93 NW8       29.91R FOG     WCI  27
$$

...ELSEWHERE IN IOWA...


CITY           SKY/WX    TMP DP  RH WIND       PRES   REMARKS
DES MOINES     DRZL/FOG  34  33  96 NW10      29.99R VSB 1   WCI  26
IOWA CITY      CLOUDY    35  33  92 W8        29.95R FOG     WCI  29
FORT DODGE     CLOUDY    30  28  93 CALM      29.99R
MARSHALLTOWN   FOG       32  32 100 W10       29.94R VSB 3/4 WCI  24
CEDAR RAPIDS   CLOUDY    32  32 100 W10       29.92R FOG     WCI  24
$$

...NORTHERN ILLINOIS...


CITY           SKY/WX    TMP DP  RH WIND       PRES   REMARKS
CHICAGO-OHARE  CLOUDY    37  36  96 W10       29.83R WCI  30
CHICAGO-MIDWAY CLOUDY    35  35 100 W9        29.84R WCI  28
MOLINE         CLOUDY    35  33  92 W12       29.92R FOG     WCI  27
ROCKFORD       FOG       35  34  96 W8        29.88R VSB 1/4 WCI  29
PEORIA         CLOUDY    38  37  97 W10       29.93R WCI  31
$$

NOTE: "FAIR" INDICATES FEW OR NO CLOUDS BELOW 12,000 FEET WITH NO
SIGNIFICANT WEATHER AND/OR OBSTRUCTIONS TO VISIBILITY. WIND
SPEEDS ARE IN MILES-PER-HOUR.




USA.gov is the U.S. government's official web portal to all federal, state and local government web resources and services.